Regional Weather Roundup
Issued by NWS

Home | Current Version | Previous Version | Text Only | Print | Product List | Glossary On
Versions: 1 2 3 4 5 6 7 8 9 10 11 12 13 14 15 16 17 18 19 20 21 22 23 24 25 26 27 28 29 30 31 32 33 34 35 36 37 38 39 40 41 42 43 44 45 46 47 48 49 50
000
ASUS43 KTOP 021608
RWRKS

WEATHER ROUNDUP FOR KANSAS
NATIONAL WEATHER SERVICE GOODLAND KS
1100 AM CDT MON MAY 02 2016

NOTE:  "FAIR" INDICATES FEW OR NO CLOUDS BELOW 12,000 FEET WITH NO
SIGNIFICANT WEATHER AND/OR OBSTRUCTIONS TO VISIBILITY.

KSZ001>006-013>018-027>032-041>047-021700-
NORTHWEST KANSAS

CITY           SKY/WX    TMP DP  RH WIND       PRES   REMARKS
GOODLAND       SUNNY     51  31  46 NW14      30.20F
HAYS           PTSUNNY   55  34  44 NW8       30.19S
HILL CITY      SUNNY     57  36  45 N8        30.20F
RUSSELL        MOSUNNY   57  36  45 NW12G18   30.17F
$$

KSZ061>065-074>080-084>089-021700-
SOUTHWEST KANSAS

CITY           SKY/WX    TMP DP  RH WIND       PRES   REMARKS
DODGE CITY     SUNNY     52  38  58 N8        30.22S
ELKHART          N/A     49  30  48 NW12        N/A
GARDEN CITY    SUNNY     53  34  48 N12       30.22F
GREAT BEND     MOSUNNY   54  37  54 N8G16     30.19S
LIBERAL        SUNNY     52  39  62 NW12G20   30.26S
PRATT          MOSUNNY   51  38  60 N10       30.21R
$$

KSZ066>073-081>083-090>101-021700-
SOUTHEAST KANSAS

CITY           SKY/WX    TMP DP  RH WIND       PRES   REMARKS
CHANUTE        CLOUDY    53  44  71 N8        30.14S
COFFEYVILLE    CLOUDY    53  44  71 NW8       30.15S
HUTCHINSON     CLOUDY    55  41  59 N12       30.18S
MEDICINE LODGE   N/A     54  42  64 N9        30.20S
NEWTON         CLOUDY    54  39  58 N16       30.18F
PARSONS        CLOUDY    52  45  77 NW10      30.16S
WICHITA INTL   PTSUNNY   57  43  59 N14       30.17S
WICHITA JABRA  CLOUDY    56  43  61 N14       30.16S
WINFIELD       CLOUDY    53  43  68 N13       30.18S
$$

KSZ007>012-019>026-033>040-048>060-102>105-021700-
NORTHEAST KANSAS

CITY           SKY/WX    TMP DP  RH WIND       PRES   REMARKS
CONCORDIA      CLOUDY    54  38  54 N12       30.16S
EMPORIA        CLOUDY    54  43  66 NW9       30.14S
LAWRENCE       CLOUDY    57  45  64 N12       30.12S
MANHATTAN      CLOUDY    55  41  59 N8        30.15S
MARYSVILLE     PTSUNNY   55  43  62 N14       30.14S
OLATHE IND     CLOUDY    53  45  74 N9        30.12F
OLATHE EXE     CLOUDY    51  43  74 N9        30.12S
SALINA         CLOUDY    58  45  62 NW8       30.18R
TOPEKA BILLARD CLOUDY    56  44  64 N8        30.13S
TOPEKA FORBES  CLOUDY    57  46  66 N7        30.12S
$$




USA.gov is the U.S. government's official web portal to all federal, state and local government web resources and services.